Wind_Speed
11 15 18 19 20 20 20 20 20 20 21 23 23 23 22 21 20 19 18 18 18 18 17 16 16 15 14 14 13 11 10 10 12 11 9 7 6 6 6 6 5 5 4 3 2 2 3 2 0 1 2 2 2 3 4 4 5 6 6 6 5 4 2 1 1 1 1 1 0 2 2 3 4 5 5 6 7 8 8 8 8 8 8 8 7
8 12 15 18 18 20 21 20 20 20 21 23 24 25 23 22 21 20 19 19 19 19 18 18 18 17 16 15 14 13 12 12 13 13 12 11 10 9 9 8 7 6 5 4 3 4 3 2 1 1 1 2 3 3 3 4 4 5 5 5 5 5 4 3 1 1 0 0 1 2 3 4 5 5 5 5 6 7 8 8 7 7 7 6 6
7 9 13 17 18 20 21 21 21 21 22 23 24 25 24 23 22 20 20 20 19 19 19 19 19 17 16 14 13 13 12 13 13 13 13 12 11 11 10 10 9 7 6 5 4 4 4 3 2 2 2 2 3 3 2 3 3 4 5 5 5 5 5 4 1 1 1 0 1 2 2 3 3 3 4 4 4 7 7 6 5 5 6 7 8
9 8 11 16 17 18 20 21 22 21 22 23 24 25 24 24 23 21 21 20 20 20 19 19 18 16 15 13 13 13 12 12 13 13 12 11 10 10 10 10 9 8 7 6 5 5 4 4 3 3 2 3 3 2 1 2 2 4 6 6 5 5 5 5 3 1 1 1 1 1 0 1 1 3 6 4 4 6 5 3 3 5 7 8 9
11 10 10 14 17 19 21 22 23 22 23 24 25 25 25 24 23 22 22 21 21 20 19 18 17 16 16 14 14 14 13 13 14 13 12 11 9 9 9 10 10 9 8 7 6 5 5 5 4 3 2 3 2 1 1 1 2 3 5 6 6 6 5 5 5 3 1 1 1 0 0 1 1 3 5 3 3 5 3 3 2 3 5 5 6
11 12 12 15 18 19 20 22 23 23 25 27 27 26 25 24 23 23 23 22 21 20 19 19 18 17 17 16 16 16 15 15 16 15 13 12 10 8 8 9 10 10 9 8 7 6 5 5 5 4 3 2 2 1 1 0 1 2 4 5 6 7 5 4 4 5 4 3 3 1 1 1 1 2 2 2 4 4 4 3 2 5 5 3 4
10 11 13 16 18 18 19 22 24 25 27 28 27 26 25 24 24 24 24 23 22 21 20 20 19 18 18 18 18 18 18 17 17 16 14 12 10 8 8 8 9 11 11 10 8 7 6 5 5 5 4 3 2 2 1 1 1 1 3 4 5 6 5 4 5 4 4 4 5 4 2 1 2 1 0 1 3 2 4 3 2 5 5 3 6
10 10 12 15 19 21 22 24 26 27 27 27 27 26 26 26 25 25 24 23 22 22 21 21 21 19 18 19 20 20 20 18 16 16 15 14 11 10 9 8 9 10 11 11 10 8 7 6 5 5 5 4 3 2 1 1 2 1 2 2 3 4 4 5 6 5 4 4 6 6 5 2 1 2 1 1 0 1 4 4 5 8 6 4 7
12 11 12 15 20 23 25 27 28 27 27 28 28 27 27 27 27 26 25 23 23 23 22 22 21 19 18 19 20 20 19 17 16 16 15 14 13 12 10 9 9 9 10 11 11 9 7 6 6 6 5 5 5 4 2 2 2 2 1 1 1 3 4 4 5 5 5 5 6 6 5 4 2 2 2 1 1 0 2 2 6 10 8 7 8
11 12 15 19 23 25 27 27 27 27 27 28 28 28 28 28 28 27 26 25 24 23 23 21 20 19 18 19 21 20 19 17 16 16 16 15 14 13 12 11 10 10 11 11 10 9 8 7 7 8 6 6 6 5 4 3 3 3 2 2 2 2 3 3 3 4 4 4 5 5 5 5 3 2 2 2 2 1 1 2 5 7 7 8 10
9 11 15 21 24 25 24 25 26 26 26 27 27 27 28 28 29 29 28 26 25 24 23 22 20 19 19 19 20 20 19 18 17 17 17 16 15 14 13 12 11 11 12 11 10 9 8 7 8 8 8 7 6 5 5 4 3 4 3 3 2 2 2 2 2 2 2 3 4 4 4 4 3 3 4 4 3 2 2 3 5 6 6 8 10
10 9 11 15 17 19 21 22 24 24 25 26 27 28 28 29 29 29 28 27 26 25 24 22 21 20 19 19 19 19 18 18 18 18 18 17 16 15 13 13 12 13 13 13 11 10 9 8 8 8 8 8 7 5 5 4 4 4 4 4 3 3 3 2 2 1 2 2 4 4 3 3 3 3 4 5 5 4 2 3 5 6 5 7 10
9 9 10 10 12 16 19 21 22 23 25 27 27 28 28 29 30 30 29 29 27 26 25 23 22 20 19 19 19 19 19 19 19 19 18 18 17 16 14 14 14 14 15 14 12 11 10 9 8 8 8 9 7 6 5 4 4 4 4 4 4 4 4 3 2 1 1 2 3 3 3 2 3 4 5 6 5 4 3 3 4 4 4 6 9
9 9 9 9 13 18 20 22 23 25 26 28 28 28 29 29 29 30 30 29 28 28 27 25 23 21 19 20 20 20 20 20 20 20 19 19 18 17 16 15 15 14 15 14 12 11 11 10 9 9 9 9 9 8 6 6 6 5 5 6 5 5 5 4 3 2 2 2 2 3 3 3 3 4 5 6 5 4 4 4 4 4 4 5 7
9 9 9 11 17 20 21 23 24 26 27 28 28 28 28 29 30 30 30 29 29 28 28 27 25 22 20 20 20 21 21 21 21 20 19 19 19 18 17 16 16 15 14 13 12 12 12 11 10 10 9 9 9 9 8 7 7 6 7 7 6 6 6 5 4 4 3 3 3 3 4 4 4 4 4 5 5 5 5 4 3 3 3 4 5
9 9 9 12 18 21 22 23 25 26 27 28 28 29 29 30 31 31 31 30 29 29 29 28 26 23 21 21 20 19 20 21 21 20 19 19 18 18 18 17 16 16 15 14 13 13 13 12 11 11 10 9 9 9 9 8 8 8 8 8 8 7 7 6 5 5 4 4 4 4 5 5 4 4 4 4 4 5 5 5 4 2 1 2 3
11 11 10 12 17 20 22 24 25 25 26 28 29 31 32 32 31 32 31 30 29 29 28 28 26 24 22 22 20 19 19 20 20 20 19 18 17 17 17 18 17 16 16 14 14 14 13 12 12 11 10 10 10 10 10 10 10 10 10 10 9 9 8 8 7 6 5 5 5 6 6 5 4 4 3 3 3 4 4 4 5 4 2 1 1
12 12 11 13 17 20 22 24 26 28 29 30 32 33 33 33 32 32 31 30 30 29 29 28 27 25 24 22 21 19 18 18 18 18 18 17 17 17 17 18 18 16 16 15 15 14 13 13 12 12 11 11 10 10 11 11 11 11 11 11 10 9 9 8 7 6 6 6 6 7 6 6 4 3 3 3 3 3 4 4 4 5 4 4 3
10 10 10 12 16 21 23 25 27 28 30 31 32 32 31 31 32 31 31 31 30 29 28 28 27 26 25 23 22 21 19 18 17 17 17 17 18 17 17 17 16 15 15 15 14 14 14 14 13 13 12 12 11 11 11 10 10 10 11 11 10 8 8 8 7 7 7 7 7 7 6 6 5 3 3 3 3 4 5 5 5 5 6 6 6
9 10 10 11 17 23 25 27 28 29 30 30 30 29 29 30 30 30 30 29 29 29 28 28 28 27 26 24 23 22 21 20 18 17 17 18 18 18 18 17 16 15 15 14 14 14 14 14 14 14 13 12 12 11 11 11 10 11 10 10 10 9 9 9 8 7 7 7 7 7 7 6 5 4 3 4 4 5 6 6 6 7 6 6 8
10 10 10 12 18 23 26 28 29 29 29 29 29 29 29 29 29 29 29 28 28 29 28 28 28 28 27 25 24 23 22 21 20 18 18 18 18 18 18 17 16 15 15 14 14 14 14 14 14 14 13 13 12 12 12 12 12 11 11 10 10 10 10 10 9 8 7 7 7 7 7 7 6 5 5 5 6 6 6 6 6 7 8 7 8
10 11 10 12 17 22 25 26 26 25 26 27 28 29 28 28 29 29 29 29 29 29 29 29 28 28 27 26 24 23 22 22 21 20 19 18 17 18 17 17 16 15 15 14 14 13 14 14 14 14 14 13 13 13 12 12 12 12 12 11 11 11 11 11 10 10 9 7 8 8 7 7 7 7 7 7 8 8 8 8 7 7 8 8 8
11 11 10 13 19 22 23 24 24 24 24 24 25 26 28 29 30 29 29 30 30 30 30 30 29 28 28 26 25 23 22 22 21 21 20 19 18 17 16 16 16 15 14 14 13 14 14 15 15 15 15 14 14 13 13 13 13 13 13 12 12 11 11 11 11 11 10 9 9 9 8 8 8 9 8 8 9 9 9 9 9 8 9 8 7
9 9 9 12 17 19 20 22 23 24 24 24 24 25 25 26 27 28 30 31 31 30 30 30 29 29 28 26 25 24 23 22 22 22 21 20 19 18 16 16 16 15 15 15 14 15 15 15 15 15 15 15 15 14 14 14 14 14 14 13 12 12 11 11 11 11 11 10 11 11 10 9 9 10 9 9 9 10 10 10 10 10 9 9 8
8 8 8 9 12 15 18 21 24 26 26 26 27 27 26 26 26 27 28 29 29 30 30 30 30 28 27 27 26 25 24 23 23 22 21 21 20 19 17 17 17 16 16 16 16 16 16 16 16 15 15 16 15 15 15 15 15 15 15 14 14 13 12 12 12 12 12 12 12 12 11 11 11 12 11 11 10 10 10 10 10 10 10 9 8
7 7 7 8 10 13 17 21 23 25 27 28 28 29 29 29 28 27 27 26 26 27 27 28 28 27 27 27 26 26 25 24 23 21 20 20 21 20 19 18 18 18 17 17 17 17 18 17 17 16 16 16 16 16 17 17 16 16 16 16 15 15 14 13 13 13 13 13 13 13 13 13 13 13 13 13 12 11 11 11 12 11 10 9 8
5 5 5 6 6 8 13 19 23 25 27 29 29 30 31 30 28 28 28 26 24 24 25 26 26 26 27 27 27 27 25 24 23 21 19 19 20 20 20 20 20 19 19 19 19 19 19 19 19 18 18 18 18 18 19 19 18 18 18 18 17 16 15 15 14 14 13 13 13 13 14 14 14 14 14 14 13 13 12 12 12 12 11 9 9
4 4 4 4 3 4 6 11 17 21 25 27 28 29 31 31 31 31 31 31 29 27 27 27 27 27 28 28 28 26 25 23 22 21 19 19 19 19 20 20 20 20 20 20 20 20 20 20 21 20 20 19 19 20 20 20 20 20 20 20 19 18 17 16 16 15 14 14 14 14 15 15 15 15 14 13 13 13 12 11 11 10 10 10 10
3 4 3 3 3 3 4 6 9 14 19 22 23 25 26 28 29 30 31 31 32 31 30 29 28 28 29 29 28 26 24 22 22 21 20 19 19 20 19 19 19 19 19 18 18 18 19 20 20 20 19 19 20 20 21 21 22 22 22 21 20 19 18 18 17 17 16 16 16 15 15 14 14 14 14 13 12 12 12 11 10 9 10 10 10
2 3 3 4 4 4 6 8 8 10 14 17 20 21 23 25 27 28 29 29 30 30 30 30 30 30 30 29 27 25 23 22 22 21 20 20 20 19 20 20 20 20 19 17 16 16 17 18 18 19 19 19 20 20 20 21 22 23 23 22 21 21 20 19 19 19 19 19 18 17 15 14 14 14 14 13 13 12 12 12 11 11 10 10 10
2 3 4 4 5 6 8 10 12 13 13 15 17 20 22 23 25 26 28 28 29 29 29 30 29 29 28 27 26 25 23 23 23 22 21 21 20 20 20 20 21 20 19 16 15 15 15 14 15 15 16 17 18 19 20 21 22 22 23 22 22 22 21 21 20 21 21 21 20 19 17 16 15 15 14 13 13 13 13 13 13 12 12 11 11
5 4 4 5 5 6 7 9 11 12 13 14 16 18 21 23 24 23 23 24 26 27 27 25 22 22 24 24 23 22 21 20 20 20 20 21 21 21 21 21 22 21 19 17 15 14 13 13 13 13 13 13 14 15 16 18 20 20 21 21 22 22 23 22 22 21 21 22 21 20 19 18 17 16 15 14 13 13 13 13 14 13 13 13 12
5 5 5 5 5 6 8 10 10 11 12 14 16 19 21 22 22 22 21 21 21 20 21 21 17 17 20 20 19 18 17 17 17 16 17 18 19 20 19 18 17 15 13 11 10 9 10 11 11 11 12 12 12 13 13 13 16 18 19 20 21 21 22 22 22 22 22 22 22 22 21 20 18 17 17 15 13 12 12 13 14 14 13 12 13
4 4 4 4 6 8 9 12 14 14 14 13 15 16 16 16 18 20 21 22 20 17 16 18 17 16 15 15 16 15 14 14 13 13 14 14 16 15 13 10 8 7 7 8 10 12 11 11 10 10 10 10 10 11 12 12 13 16 18 19 20 20 21 21 22 22 22 22 22 22 23 23 21 20 19 17 14 13 13 13 14 14 12 12 13
6 6 6 6 8 10 10 10 12 14 13 11 11 12 12 13 16 18 18 18 18 15 14 15 15 13 12 12 12 12 12 12 11 11 11 10 8 5 4 5 6 7 10 14 16 15 9 6 6 6 8 10 11 11 12 13 14 15 16 17 18 19 19 20 21 20 20 21 20 20 22 24 24 22 21 19 17 15 14 14 13 12 12 12 12
6 7 7 7 8 9 10 9 10 13 14 13 13 14 13 14 16 17 16 16 16 14 12 12 12 10 9 9 8 7 7 7 8 8 8 7 6 6 6 3 6 5 4 7 9 8 7 7 9 9 9 11 13 13 13 14 14 15 15 15 16 17 17 18 20 20 20 21 22 21 21 22 24 23 21 19 18 17 16 14 13 11 11 12 11
9 9 9 8 9 9 9 10 10 12 14 15 16 16 16 15 16 16 16 15 15 14 13 12 11 10 8 8 8 6 4 2 3 5 6 5 4 4 3 5 8 7 6 9 10 9 10 12 14 15 14 14 14 14 14 14 14 14 14 14 15 15 16 17 19 20 20 21 23 24 23 23 23 23 22 20 19 18 17 14 12 11 11 12 12
11 11 11 12 11 11 12 13 14 13 11 12 14 16 19 19 19 20 19 17 15 14 14 12 11 9 8 7 6 5 4 3 3 3 1 1 1 2 3 2 3 5 8 12 13 11 8 7 8 10 12 12 13 14 14 15 15 16 16 17 17 19 20 21 22 23 23 24 24 24 23 23 24 24 24 23 22 20 18 15 13 12 12 13 13
14 14 14 15 15 15 15 16 16 13 10 11 13 16 18 17 16 18 19 18 17 16 14 13 11 10 9 9 9 8 7 4 2 1 3 5 4 2 3 4 2 1 3 7 9 7 5 5 5 6 7 8 10 11 13 14 15 16 18 19 20 22 24 26 27 27 28 28 29 27 22 21 24 26 25 23 22 21 18 15 14 13 12 12 12
14 15 15 15 16 17 17 17 16 12 10 12 15 18 20 18 18 18 18 16 15 16 17 16 14 13 11 10 10 10 9 8 5 4 5 5 5 4 4 4 2 1 3 4 4 3 3 2 1 3 4 5 6 8 9 10 10 11 12 13 14 16 20 23 25 25 25 26 28 29 26 25 25 24 23 22 22 20 17 14 13 12 11 10 10
15 15 16 17 17 17 18 17 15 13 12 14 18 21 22 21 22 22 21 18 18 18 18 17 17 16 15 14 13 12 10 10 9 7 6 6 6 5 4 3 3 3 2 2 3 4 5 5 3 2 1 3 4 5 6 7 7 7 8 8 9 10 13 15 17 18 19 19 19 19 20 22 21 20 21 22 20 18 16 13 11 11 10 9 9
17 16 17 17 16 16 18 17 16 15 15 17 21 24 24 23 23 21 18 18 19 18 18 19 19 18 17 16 14 13 12 12 11 9 9 9 8 7 5 5 6 7 7 6 6 7 8 8 6 5 6 7 7 8 8 9 10 9 9 9 9 10 11 12 13 12 12 13 13 12 12 17 18 16 17 18 17 15 14 11 9 10 9 8 7
16 17 17 17 16 17 18 18 17 17 18 19 22 24 24 24 23 19 16 18 19 18 17 18 19 19 18 17 15 14 13 13 11 10 11 11 9 8 7 7 7 8 9 9 8 8 9 9 8 7 7 8 9 9 9 10 10 10 9 9 9 10 11 12 12 13 12 11 11 11 11 13 15 13 11 12 13 12 11 10 9 9 8 6 6
14 15 16 17 17 18 18 18 18 19 19 21 23 23 23 22 20 16 15 16 16 15 15 16 17 17 17 16 15 14 13 13 12 11 11 11 10 8 8 7 7 7 8 10 10 9 9 9 8 8 7 7 7 7 8 9 9 9 9 9 9 10 10 11 11 12 12 12 11 11 10 9 10 10 9 8 9 9 8 8 7 6 6 6 6
13 14 15 16 17 18 18 18 18 18 19 20 21 22 21 19 16 15 15 15 15 15 16 17 17 17 16 15 14 13 12 11 11 11 12 12 10 8 6 5 5 5 6 6 7 8 8 7 7 7 6 5 4 5 7 9 9 10 10 11 11 11 11 11 11 11 11 11 11 10 10 9 6 4 4 5 5 5 4 5 7 7 7 8 6
13 13 14 15 16 17 18 18 17 17 17 17 18 20 19 17 15 14 14 14 14 15 16 16 15 15 14 14 13 13 12 11 10 10 11 11 10 8 6 4 3 3 3 3 3 4 5 5 5 4 4 3 3 5 7 8 10 10 11 12 12 11 11 11 11 11 10 10 9 8 8 9 9 9 8 6 6 6 5 6 7 6 5 4 3
13 13 14 15 16 16 16 17 17 15 15 16 17 17 17 15 14 13 12 12 13 15 15 14 14 13 12 11 11 11 11 10 10 10 10 10 9 8 7 5 3 2 1 1 2 1 1 1 1 3 3 3 4 6 9 11 11 12 12 14 14 13 12 11 10 9 9 8 7 6 5 6 6 6 6 5 4 3 2 1 2 3 4 6 8
13 13 14 14 15 16 16 16 16 14 14 15 16 16 15 15 15 14 12 12 13 13 13 13 13 12 12 11 11 11 10 10 10 9 9 9 9 8 7 6 5 3 1 1 1 2 2 3 3 3 4 4 6 9 11 13 14 15 15 15 14 13 12 11 10 8 7 6 4 3 4 6 8 8 10 11 12 12 11 11 10 11 11 10 11
14 14 14 15 15 15 15 15 15 14 14 15 15 15 14 14 14 13 12 13 12 11 11 12 12 12 11 11 11 10 10 9 9 8 7 7 7 7 6 5 5 4 3 2 2 2 2 3 4 4 4 5 7 10 12 14 15 15 15 14 13 12 10 9 8 7 5 3 5 7 9 10 12 15 16 16 16 16 16 16 15 15 15 14 14
15 15 15 16 16 15 15 15 14 13 14 14 14 13 13 13 12 11 11 12 13 11 11 11 11 11 10 10 9 9 8 7 7 7 7 6 6 6 6 5 4 4 3 3 2 1 2 2 3 4 6 7 8 10 11 12 13 12 12 12 11 9 8 7 6 5 3 4 8 11 12 13 16 18 20 19 19 19 18 18 18 18 18 18 18
12 13 14 14 14 13 13 13 12 12 12 12 12 12 12 13 12 10 9 10 11 11 11 9 8 8 8 7 7 6 6 5 5 5 5 5 5 5 6 6 6 5 4 3 3 2 3 4 5 5 6 6 7 8 8 9 10 10 10 10 8 5 4 5 5 3 4 7 10 13 15 15 17 18 19 19 19 19 19 19 18 18 18 18 18
Wind_Direction
182 173 173 175 180 184 184 185 186 186 190 191 190 190 191 189 189 188 187 185 185 187 188 190 194 198 204 208 210 211 215 211 202 199 199 204 207 207 214 223 232 242 254 258 250 236 221 209 220 2 358 8 10 11 15 13 13 7 10 35 46 43 49 47 223 216 207 176 59 323 317 323 326 328 328 330 331 328 323 320 324 327 324 320 318
166 166 167 170 177 181 180 182 184 186 189 193 193 192 192 193 191 189 188 190 191 190 190 193 196 199 203 207 212 217 220 216 210 210 214 219 224 229 234 240 244 246 252 254 241 237 239 236 274 310 329 350 345 343 1 14 12 11 16 36 49 50 47 35 74 143 127 114 65 335 328 326 316 318 321 318 323 323 317 314 322 327 319 314 319
163 166 164 168 176 179 178 180 184 187 189 192 193 192 193 195 194 192 191 193 193 193 193 195 197 200 205 211 216 222 225 221 221 223 224 225 229 234 237 241 243 242 246 253 245 240 246 254 278 292 296 313 319 320 346 17 17 26 33 40 51 53 45 37 40 222 281 144 61 355 353 346 321 322 329 321 323 321 313 304 302 308 311 310 316
171 170 166 167 172 177 177 179 183 186 188 190 192 192 194 197 197 195 194 195 196 196 196 197 200 203 211 220 221 221 222 221 225 227 223 222 226 232 236 236 235 235 240 248 246 245 252 259 272 279 286 299 298 300 334 19 28 40 43 42 48 49 45 40 33 301 251 203 63 26 82 17 334 331 338 332 337 335 329 324 307 301 308 308 307
172 170 170 168 172 180 180 179 181 183 187 190 192 193 196 198 200 199 196 195 198 200 201 203 205 207 213 219 216 215 218 219 221 221 217 218 226 233 235 234 231 228 232 242 246 249 256 262 266 266 283 293 270 277 334 6 28 37 40 38 42 45 42 47 57 62 91 152 55 128 350 6 242 304 332 332 350 3 18 32 23 351 334 321 315
176 171 172 174 177 180 180 180 181 184 189 192 193 195 198 201 201 201 199 198 201 206 208 208 207 209 211 210 206 206 210 215 218 216 216 220 229 237 237 233 228 224 227 238 243 245 253 260 260 261 272 279 259 282 318 267 38 33 35 34 40 43 40 60 78 73 72 58 37 19 315 292 245 309 339 318 338 13 43 45 40 14 2 0 358
180 174 173 176 176 176 179 183 184 188 191 193 195 198 201 203 202 201 203 204 208 212 212 208 206 209 212 211 210 209 210 216 220 219 219 222 228 235 237 233 227 223 226 235 239 239 249 256 255 258 256 250 251 267 291 242 207 34 30 32 40 43 42 58 66 60 61 51 41 37 13 280 260 319 231 309 335 349 7 9 2 2 5 18 13
178 177 177 178 177 178 182 186 189 191 192 193 195 199 202 203 202 202 206 210 212 213 209 206 206 207 210 212 213 214 217 220 220 218 219 222 227 231 234 236 230 224 226 232 235 235 247 255 253 256 246 233 241 253 275 259 229 264 12 30 36 33 37 47 47 44 52 50 45 44 37 34 350 331 301 330 69 265 336 350 346 353 3 19 13
177 178 180 180 181 183 186 187 190 192 193 193 195 197 200 202 203 204 207 210 210 208 206 206 209 209 210 211 211 213 218 220 217 217 218 220 227 231 232 235 233 227 226 227 226 230 244 254 254 256 250 238 239 244 261 266 234 238 300 351 358 7 18 31 36 41 54 53 43 40 38 34 19 6 351 341 80 212 305 314 333 345 351 357 3
181 180 180 183 185 187 188 187 189 192 194 195 195 196 198 201 202 203 204 206 206 206 206 208 210 212 212 211 209 210 212 215 216 216 217 220 227 230 231 233 232 229 225 219 219 228 242 253 254 254 253 247 244 241 249 263 237 226 258 290 294 330 349 358 14 32 46 44 30 29 32 25 7 359 353 333 327 315 278 280 318 336 334 340 358
184 183 184 186 187 187 186 185 187 191 194 195 194 195 197 200 202 202 204 206 208 209 210 211 212 214 215 213 212 212 212 214 215 216 218 221 225 229 232 234 233 228 222 220 224 233 241 249 254 251 248 245 244 245 250 260 247 235 252 264 273 309 323 314 318 357 21 23 17 16 22 22 9 339 336 329 311 298 295 294 317 331 316 322 351
184 184 187 185 182 181 183 184 186 188 190 192 194 195 197 199 201 202 205 208 211 212 212 214 215 216 217 218 219 220 221 221 220 223 224 224 226 229 231 236 237 230 224 226 231 236 240 246 250 246 240 239 244 252 255 258 253 246 253 257 270 301 304 288 272 289 337 359 6 3 3 14 12 353 342 336 320 310 314 304 318 337 323 321 350
185 184 185 180 176 177 181 183 183 185 189 192 194 195 196 199 201 202 205 208 212 213 213 214 215 217 218 221 224 226 229 230 230 231 230 229 229 229 232 235 237 232 228 230 235 238 242 247 251 245 237 238 244 254 261 266 265 253 252 259 271 287 293 284 260 267 311 336 355 1 358 348 353 351 344 341 335 321 324 323 329 337 316 321 349
187 185 183 180 180 180 181 182 183 187 190 192 193 195 196 198 200 202 205 208 211 212 213 214 216 219 222 224 227 229 232 233 234 234 233 231 231 232 236 237 236 235 232 234 239 242 245 250 252 248 242 241 244 252 261 268 269 263 262 268 271 277 282 278 272 277 291 314 336 349 347 333 327 332 337 342 343 332 328 330 336 335 317 323 345
187 186 185 186 185 183 183 184 186 189 191 191 193 195 196 198 200 202 204 206 210 212 213 214 217 221 226 228 230 232 234 235 235 235 234 233 233 237 241 241 240 240 239 242 245 246 250 254 254 250 245 243 244 251 259 263 266 267 270 271 268 269 274 271 274 282 282 288 309 324 330 327 318 316 325 336 340 335 333 329 329 337 332 335 341
186 186 187 190 189 185 184 186 189 191 191 192 194 195 197 199 201 203 205 207 209 211 212 214 217 222 227 229 231 234 235 235 233 233 233 234 237 241 244 245 245 245 245 246 249 252 255 257 256 251 246 246 248 252 257 260 262 264 268 268 263 263 269 271 276 286 286 285 297 309 315 319 319 312 307 319 332 333 334 329 323 328 348 339 331
186 188 187 189 189 188 188 188 190 191 193 194 196 198 199 200 201 202 204 207 209 211 211 212 216 221 226 229 232 234 235 234 233 233 233 235 240 245 246 247 249 249 248 249 252 255 257 256 254 249 246 250 253 254 256 261 263 265 264 263 261 260 266 271 273 277 284 292 301 305 304 306 308 303 289 286 306 320 326 324 317 314 301 290 301
188 188 185 187 188 190 191 192 193 193 195 198 199 201 202 202 202 202 203 206 209 211 212 213 217 220 223 227 230 233 234 235 235 237 237 240 245 247 246 247 250 250 250 252 254 254 256 256 252 249 250 253 255 256 258 261 262 265 264 261 261 261 262 266 264 265 275 285 295 298 296 294 293 288 280 267 275 302 317 319 316 307 288 261 241
186 185 185 188 189 191 193 194 196 197 198 201 202 202 202 203 204 204 206 209 211 212 213 215 218 220 223 227 229 231 232 233 236 240 242 245 248 249 247 246 248 248 249 253 255 254 256 256 253 252 254 255 257 259 259 259 260 263 263 259 260 263 265 266 262 263 270 276 284 289 284 283 288 281 272 273 283 301 312 316 315 304 290 274 253
184 184 187 190 190 194 195 195 197 198 200 202 202 202 203 204 204 206 208 210 212 213 215 216 218 220 224 226 228 230 231 232 236 239 243 246 248 250 248 247 247 247 250 253 253 253 254 254 253 254 256 256 255 257 256 256 261 263 262 259 259 261 264 269 269 268 274 278 283 285 279 277 284 279 272 276 285 297 302 303 304 298 287 276 261
184 184 188 192 193 195 197 198 199 198 200 201 201 203 205 205 205 206 208 209 211 213 215 217 219 220 223 226 228 230 231 232 234 237 241 244 247 248 248 248 250 250 251 252 252 252 253 253 253 254 257 255 253 255 253 253 259 263 261 259 259 259 263 269 271 268 271 280 286 286 277 270 270 270 270 273 279 288 289 285 283 284 281 275 265
184 185 187 191 194 195 196 198 199 198 199 200 201 202 203 205 207 207 208 209 211 214 216 218 219 220 222 226 228 230 231 231 233 235 237 239 242 244 246 248 249 248 249 252 252 253 254 254 255 256 256 255 253 254 252 251 257 261 260 260 261 262 266 270 269 265 266 274 283 285 275 265 267 271 275 279 282 286 288 287 283 280 281 280 274
182 183 186 189 193 194 193 193 194 196 198 200 201 201 203 206 208 207 208 211 213 215 217 218 218 220 222 225 227 229 230 231 233 235 235 236 237 240 243 246 246 245 249 254 255 256 257 258 261 260 257 256 255 256 255 254 257 260 261 262 262 264 267 269 269 268 268 272 279 284 283 275 274 278 281 283 285 287 288 287 287 283 278 279 282
177 180 182 185 187 188 187 187 188 191 194 196 198 202 205 207 208 209 210 212 213 214 215 216 217 220 222 223 225 226 227 229 232 235 236 238 238 240 242 242 242 245 250 255 257 258 260 261 264 264 261 259 259 259 259 258 257 258 260 262 262 264 266 269 271 271 271 273 278 284 286 283 281 283 284 285 285 288 288 283 282 280 273 273 282
172 175 172 174 178 179 183 184 186 187 189 191 194 198 202 205 207 210 212 213 213 212 213 214 215 217 219 221 224 225 226 227 230 235 240 242 242 242 243 241 241 245 251 255 257 259 260 261 263 265 264 264 263 263 263 260 258 258 261 264 266 266 266 267 269 271 274 277 280 283 284 284 285 285 284 285 285 285 284 280 278 278 274 271 275
168 170 170 176 178 178 181 182 184 185 186 187 191 194 197 200 203 206 210 213 213 212 211 212 213 213 215 219 223 225 227 228 230 234 240 245 245 245 244 242 241 245 249 251 255 258 260 262 264 267 268 269 268 266 264 262 261 263 265 268 269 268 268 267 267 270 274 278 281 283 284 284 283 284 283 282 282 283 281 278 277 278 277 272 272
156 156 165 179 185 186 183 182 182 183 185 187 189 191 193 194 197 201 205 208 210 212 212 211 211 212 215 218 222 225 229 230 232 235 240 246 248 247 246 244 244 247 249 252 257 260 263 265 267 269 272 274 272 268 265 263 263 264 267 270 271 269 267 266 267 269 274 278 282 284 284 284 282 282 283 280 279 281 280 275 273 275 274 271 274
134 141 152 161 172 186 189 190 186 181 181 185 188 191 192 191 194 198 201 203 205 208 210 211 211 212 215 220 222 226 229 232 234 237 241 246 247 247 247 247 248 249 252 257 262 265 267 269 270 272 274 275 274 270 267 266 266 267 268 269 269 267 265 264 266 269 274 279 282 283 284 284 282 280 279 277 276 277 276 273 271 270 268 268 275
130 134 122 119 133 145 159 187 191 180 177 181 185 189 191 191 193 196 199 201 202 203 205 209 210 211 216 220 223 226 229 232 234 236 239 243 245 246 247 249 249 251 257 265 268 269 270 271 272 272 273 272 273 272 272 272 271 271 271 271 269 265 262 262 264 267 270 274 277 281 282 283 282 279 275 272 271 268 266 267 270 268 264 264 270
140 137 126 120 123 134 143 158 179 185 179 178 182 186 188 190 192 194 196 199 199 199 201 205 209 213 217 220 221 225 229 231 233 235 236 238 240 243 246 248 250 255 263 268 270 269 271 273 273 272 272 270 271 273 276 277 275 273 272 272 270 266 261 261 264 266 269 271 273 275 277 278 279 276 270 265 263 263 264 269 274 272 268 265 265
151 141 137 131 128 136 146 159 174 185 185 182 184 186 187 190 193 195 196 197 197 198 200 203 207 210 214 216 219 222 227 230 234 237 238 239 242 245 246 247 250 256 263 264 264 265 266 269 272 272 273 274 274 275 275 275 275 274 271 269 268 265 261 262 265 267 270 273 273 273 272 273 272 269 264 257 255 260 264 270 275 276 276 272 266
156 151 149 149 149 150 154 162 170 178 183 186 187 188 190 193 193 194 194 192 193 196 196 198 205 211 211 211 215 219 224 230 233 237 242 245 247 247 246 247 250 253 254 249 247 252 255 260 265 268 272 277 280 281 281 279 279 277 272 267 264 262 261 263 265 268 271 273 273 272 271 270 268 264 258 253 252 257 264 269 273 274 275 270 263
151 156 158 151 137 130 144 156 162 170 181 188 193 195 198 199 194 192 189 184 185 189 188 190 205 220 214 208 211 216 221 226 230 234 240 244 246 246 244 244 245 246 245 241 241 247 252 255 260 266 272 276 281 284 286 287 284 279 272 266 262 260 262 264 267 269 271 273 275 274 270 267 264 258 253 251 251 257 265 272 275 275 274 268 259
90 103 99 100 107 121 147 163 168 173 179 186 191 192 192 190 185 182 180 179 181 185 185 188 203 218 214 205 206 210 213 219 221 223 228 233 236 236 229 219 217 221 226 233 239 242 246 253 260 269 276 278 279 279 278 278 277 273 268 263 261 262 264 267 270 272 273 274 275 275 272 266 259 252 249 248 249 255 262 268 274 276 274 267 257
66 75 78 90 110 125 142 157 169 177 178 176 178 178 170 160 158 161 164 168 173 176 178 182 189 200 205 200 201 208 212 215 215 213 218 222 218 200 138 152 201 231 236 237 240 240 242 257 271 284 296 295 290 284 280 277 273 269 265 261 261 263 265 269 271 272 275 277 277 279 277 269 259 250 246 245 247 253 259 263 268 270 267 261 253
66 68 73 83 100 117 129 138 155 170 174 174 174 172 162 149 149 154 157 160 164 164 169 177 176 178 186 188 192 205 210 211 216 215 212 198 169 121 87 136 210 235 265 265 259 252 246 250 252 256 274 288 290 284 279 277 275 273 270 267 265 266 268 271 273 274 280 285 285 285 281 269 258 253 250 248 250 255 258 259 259 257 253 249 244
53 57 68 79 92 105 111 113 120 138 160 175 175 168 159 151 152 158 161 164 166 163 166 176 177 171 167 169 180 186 176 187 235 231 219 206 186 186 219 234 228 236 264 277 278 275 268 265 263 261 262 269 276 275 272 272 273 274 276 276 275 275 274 275 276 278 282 286 286 283 275 264 257 253 249 250 255 258 257 254 247 240 237 238 239
49 51 51 55 66 77 86 96 98 102 125 150 155 153 150 146 147 153 157 159 161 161 162 163 159 150 136 129 140 154 168 212 258 266 247 28 1 278 284 310 275 259 265 270 276 283 283 270 259 256 257 259 265 270 272 275 276 280 285 288 289 288 286 283 281 281 282 284 283 279 271 262 256 248 241 245 251 253 251 248 240 229 226 232 239
57 59 57 55 62 69 75 82 82 81 95 113 121 127 125 119 122 133 138 138 139 141 141 136 127 121 117 108 102 104 117 141 163 59 65 71 64 46 43 51 51 274 254 258 265 266 249 229 229 241 254 263 270 277 282 285 286 287 290 291 291 290 288 285 284 285 285 284 280 275 267 260 252 243 237 242 244 242 241 239 233 226 224 230 239
57 60 67 72 75 75 73 69 69 75 88 97 102 102 95 86 87 94 94 92 99 107 111 110 107 104 103 99 97 104 112 117 114 94 76 75 72 65 68 77 94 177 211 219 227 222 198 181 240 270 271 279 289 299 305 308 308 306 305 305 303 296 291 289 289 288 286 286 284 277 268 260 253 244 237 238 236 231 227 223 221 225 228 231 237
67 63 67 72 73 73 72 70 73 84 90 93 95 90 84 84 85 85 84 86 91 96 98 100 100 98 97 96 98 104 108 102 95 89 83 80 74 70 75 84 91 106 135 135 119 114 107 98 92 86 56 37 20 10 6 5 2 356 352 347 339 327 317 310 305 296 288 287 291 284 266 252 244 234 227 226 222 216 211 210 220 234 239 238 238
82 77 73 74 73 74 74 74 78 87 90 93 93 85 80 81 79 76 84 93 94 93 93 95 95 95 94 95 95 95 91 85 81 79 80 81 77 72 69 63 74 91 100 101 107 113 114 114 113 100 81 71 64 57 51 48 42 35 30 23 14 5 355 347 340 330 315 304 300 296 273 250 240 234 225 217 212 209 207 209 224 236 237 238 239
86 85 84 84 79 75 75 76 80 86 88 90 90 84 80 80 78 76 84 90 89 87 87 87 88 88 87 87 87 84 79 76 75 75 78 80 80 78 72 59 62 84 102 109 116 122 122 121 115 101 91 86 79 69 58 51 45 39 35 31 25 19 10 3 359 356 352 339 322 313 299 271 258 259 248 222 213 216 216 217 226 230 232 243 252
88 92 95 93 86 81 79 80 83 87 88 88 88 83 78 77 77 79 84 87 88 87 84 82 82 82 83 83 82 79 74 70 70 69 72 75 76 74 75 71 69 83 102 113 120 127 127 121 113 105 102 100 87 62 43 34 29 25 19 14 12 7 360 357 358 357 356 352 343 337 328 303 272 263 257 240 229 230 229 231 240 250 256 255 251
96 99 99 95 91 90 88 86 85 86 86 88 89 87 83 79 80 83 85 88 92 92 89 87 83 80 80 79 76 73 68 66 66 65 65 66 66 66 72 77 73 70 82 102 119 130 129 119 113 110 106 100 76 40 25 17 11 6 3 0 358 353 346 340 339 343 348 350 349 350 348 343 338 326 311 300 293 293 293 286 291 299 287 265 249
106 106 106 103 99 96 92 88 85 85 85 84 84 84 82 81 82 81 82 86 91 92 90 86 81 77 74 69 67 66 65 65 65 62 61 61 59 59 65 73 72 63 62 75 97 122 129 120 110 102 88 70 33 8 359 355 352 350 348 348 347 346 343 337 329 328 332 336 343 354 0 1 6 8 0 344 327 328 332 312 298 296 274 234 180
115 115 115 113 106 98 92 87 83 81 81 80 77 76 76 76 74 71 73 80 83 84 83 78 74 71 66 62 63 64 63 63 62 58 58 60 57 53 55 60 69 82 105 59 29 28 158 156 81 52 35 14 351 340 337 337 337 336 336 337 338 338 338 337 331 325 328 338 349 5 24 37 44 43 41 50 64 76 86 120 164 141 137 140 136
121 121 120 117 110 103 97 92 87 83 81 80 76 72 70 68 65 62 66 73 75 74 72 69 65 64 62 60 62 60 56 55 56 54 55 55 50 45 43 44 45 43 37 294 313 316 291 288 319 349 350 340 331 328 329 329 328 329 331 330 330 333 335 339 338 333 340 5 33 71 96 101 100 93 87 87 93 100 105 108 113 116 116 120 132
122 122 121 117 112 108 102 95 91 90 89 86 81 74 66 60 56 52 54 60 63 62 60 56 53 55 56 54 53 52 48 46 46 44 40 37 35 33 31 29 26 26 28 12 320 303 295 297 308 321 325 326 324 322 324 325 325 329 332 329 329 333 337 341 344 342 353 43 100 120 120 113 106 100 97 96 96 98 100 101 104 108 109 112 118
115 116 114 111 110 109 103 95 91 91 91 87 81 72 62 54 49 46 48 53 55 55 55 56 55 55 54 50 47 45 41 35 32 29 29 32 32 30 28 25 14 1 6 11 4 356 339 322 320 320 321 324 325 324 326 327 328 332 334 332 333 335 336 341 347 351 16 93 118 117 108 104 102 100 99 100 101 101 100 98 99 100 100 101 103
106 104 101 100 101 101 98 93 89 86 84 81 75 69 62 55 51 50 51 53 55 56 58 60 58 55 52 47 41 36 28 21 17 20 27 31 27 18 18 25 23 12 1 358 354 344 336 332 329 331 337 342 344 344 341 338 339 341 340 338 342 345 344 351 0 20 75 104 113 108 99 97 99 97 96 99 103 103 100 97 96 94 92 91 91
Height
815 818 820 822 824 825 827 829 831 833 834 835 836 838 839 840 841 842 843 844 846 847 848 850 851 852 853 854 855 856 858 859 860 861 862 863 863 864 865 866 866 867 868 868 869 869 870 870 871 871 871 871 871 871 871 870 870 869 868 868 867 867 867 866 866 866 866 866 866 866 866 866 866 866 866 865 865 865 864 865 864 864 864 864 864
816 818 820 822 824 825 827 829 831 832 834 835 836 837 839 840 841 842 843 845 846 847 849 850 851 852 853 855 856 857 858 859 860 861 862 863 864 864 865 866 867 867 868 869 869 870 870 871 871 871 871 871 871 871 871 870 870 870 869 869 868 868 867 867 867 867 867 867 867 867 867 866 866 865 865 865 865 865 864 864 864 864 864 864 864
817 818 820 822 824 826 827 828 830 832 833 835 836 837 839 840 841 842 844 845 846 848 849 850 852 853 854 855 856 857 858 859 860 861 862 863 864 864 865 866 867 867 868 869 869 870 871 871 871 872 872 872 872 872 871 871 870 870 869 869 869 868 868 867 867 867 867 867 867 869 869 868 867 865 865 865 865 864 864 864 864 864 864 864 863
817 818 819 821 824 826 827 827 829 832 833 834 835 837 838 840 841 842 844 845 847 848 849 851 852 854 855 856 857 858 858 859 860 861 862 863 863 864 865 866 867 867 868 869 869 870 871 871 872 872 872 872 872 872 871 871 871 871 870 870 869 869 869 868 868 868 868 868 869 870 870 871 872 868 865 865 864 864 863 863 864 864 864 863 863
816 818 819 820 823 825 826 827 829 831 832 833 835 836 838 839 841 843 844 845 847 848 850 851 852 854 855 856 857 858 859 859 860 861 862 863 863 864 865 865 866 867 868 869 869 870 871 871 872 872 872 872 872 872 872 872 871 871 871 870 870 869 869 869 868 868 868 868 869 870 871 873 873 869 866 866 864 864 864 863 864 864 863 863 862
812 814 816 818 821 823 825 827 828 830 831 833 834 836 837 839 841 843 844 846 847 848 850 851 852 853 854 855 856 857 858 859 860 861 862 863 863 864 865 865 866 867 868 869 869 870 871 871 872 872 872 872 872 872 872 872 872 872 871 871 870 870 870 870 869 869 869 869 868 869 870 871 870 868 869 869 866 864 864 864 864 864 863 863 862
811 812 814 816 819 822 824 825 827 828 830 832 834 836 837 839 840 842 844 845 847 848 849 851 852 853 853 854 855 856 857 858 859 861 861 862 863 864 865 866 866 867 868 869 869 870 871 871 871 872 872 872 872 872 872 872 872 872 872 871 871 871 870 870 870 870 869 869 869 868 868 868 868 868 869 870 869 867 865 864 864 864 863 863 862
811 812 813 815 817 819 821 823 825 826 829 831 833 835 837 838 840 842 843 845 846 848 849 850 851 852 853 854 855 856 857 858 859 860 861 862 863 864 865 866 866 867 868 869 869 870 871 871 871 872 872 872 872 872 872 872 872 872 872 872 871 871 871 871 871 870 870 870 869 869 868 868 868 868 868 868 870 870 867 864 864 864 863 863 863
807 810 811 813 815 817 819 821 823 826 828 830 831 834 836 837 839 841 843 844 846 847 849 850 851 852 853 854 855 856 857 858 859 860 861 862 863 864 865 865 866 867 868 869 869 870 871 871 871 872 872 872 872 872 872 872 872 872 872 872 872 871 871 871 871 871 870 870 869 869 868 868 868 868 868 867 868 870 869 866 864 864 863 863 863
805 807 808 811 812 815 817 819 822 825 827 829 831 833 834 836 838 840 842 843 845 847 848 850 851 852 853 854 855 856 857 858 859 860 861 861 862 863 864 865 866 867 867 868 869 870 871 871 871 871 872 872 872 872 872 872 872 872 872 872 872 872 871 871 871 871 870 870 870 869 869 868 868 868 868 868 867 868 868 866 865 864 863 862 862
805 806 807 809 811 813 817 819 821 824 826 829 830 832 833 835 837 839 841 842 844 846 847 849 850 851 852 853 854 855 856 857 858 859 860 861 862 862 863 865 865 866 867 868 869 869 870 870 871 871 871 871 872 872 872 872 872 872 872 872 872 871 871 871 871 871 870 870 869 869 869 868 868 868 868 868 867 867 867 866 865 864 864 863 862
804 806 807 809 811 814 817 818 820 823 825 827 829 830 832 833 835 837 839 841 842 844 846 848 849 850 852 853 854 855 856 857 857 858 859 860 861 862 863 864 865 865 866 867 868 869 869 870 870 870 871 871 871 871 872 872 872 872 871 871 871 871 871 871 871 870 870 870 869 869 869 868 868 868 868 868 867 867 867 867 865 865 864 863 862
803 805 806 808 810 812 815 817 819 822 823 825 827 829 830 832 834 835 837 839 841 843 844 846 848 849 851 852 853 854 855 856 856 857 858 859 860 861 862 863 864 864 865 866 867 868 869 869 869 869 870 870 871 871 871 871 871 871 871 871 871 871 871 871 870 870 870 870 869 869 869 868 868 868 868 868 867 867 867 866 866 865 865 863 862
801 803 804 806 808 809 812 815 817 819 821 823 825 827 829 830 832 834 835 837 839 841 842 844 846 848 850 851 852 853 854 855 856 856 857 858 859 860 861 862 863 863 864 865 866 867 868 868 869 869 869 869 870 870 870 871 871 870 870 870 870 870 870 870 870 870 870 869 869 869 869 868 868 868 868 868 867 867 867 867 866 865 864 863 862
799 801 803 804 805 807 810 812 814 817 819 821 823 825 827 828 830 832 833 835 837 839 840 842 844 846 848 850 851 852 853 854 855 856 857 858 859 860 860 861 862 863 863 865 866 866 867 868 868 868 868 869 869 869 869 870 870 870 870 870 870 870 870 870 870 870 870 869 869 869 868 868 868 868 868 867 867 867 867 867 866 866 866 864 863
797 799 801 802 803 805 807 810 812 815 817 819 821 823 825 826 828 829 831 833 835 837 838 840 843 845 846 848 849 850 852 853 854 855 856 857 858 859 860 860 861 862 863 864 865 865 866 867 867 867 868 868 868 868 869 869 869 869 869 869 869 869 869 870 870 870 870 869 869 868 868 868 868 867 867 867 867 867 866 866 866 866 867 867 865
795 796 798 800 802 804 806 807 810 813 815 817 819 820 822 823 825 827 829 831 833 835 837 839 841 843 845 846 848 849 850 851 853 854 855 856 857 858 859 860 860 861 862 863 864 864 865 865 866 866 867 867 867 867 868 868 868 868 868 868 868 868 869 869 869 869 869 869 868 868 868 867 867 866 866 866 866 866 865 865 865 865 866 867 868
791 792 795 797 799 802 804 806 808 810 812 814 816 818 819 821 823 825 828 829 831 833 835 837 839 841 843 844 846 847 849 850 852 853 854 855 856 857 858 859 859 860 861 862 862 863 864 864 864 865 865 866 866 866 867 867 867 867 867 867 867 868 868 868 868 868 868 868 867 867 867 866 866 866 865 865 865 865 865 864 864 864 864 865 866
790 791 794 795 797 800 801 803 806 808 810 812 814 816 818 820 822 824 826 828 830 832 834 836 837 839 841 842 844 846 847 849 850 852 853 854 855 856 857 857 858 859 860 861 861 862 862 863 863 864 864 864 865 865 865 866 866 866 866 866 866 867 867 867 867 867 867 867 866 866 866 866 865 865 865 865 864 864 864 864 864 863 863 863 863
788 790 791 792 794 797 798 801 803 805 808 810 813 816 817 819 821 823 825 827 829 831 832 834 836 837 839 840 842 844 845 847 849 850 852 853 854 855 856 857 857 858 859 859 860 860 861 861 862 862 862 863 863 863 864 864 864 864 865 865 865 865 865 865 866 866 866 866 865 865 865 865 865 864 864 864 864 863 863 863 863 863 862 862 862
785 787 788 789 791 794 796 798 801 803 806 809 811 814 816 818 820 821 824 826 827 829 831 832 834 836 837 839 841 842 844 846 847 849 850 851 852 853 854 855 856 857 857 858 858 859 859 860 860 861 861 861 861 862 862 862 863 863 863 864 864 864 864 864 864 865 865 865 864 864 864 864 863 863 863 863 863 863 862 862 862 862 861 861 861
783 783 785 787 789 791 794 796 799 802 805 807 809 811 814 816 818 820 822 824 825 827 829 830 832 834 836 837 839 841 843 844 845 847 848 849 850 851 852 854 854 855 856 856 857 857 858 859 859 859 860 860 860 860 861 861 861 862 862 862 863 863 863 863 863 863 863 863 863 862 862 862 862 862 862 862 862 862 861 861 861 860 860 860 860
779 780 781 783 785 788 791 794 797 800 802 805 808 810 812 814 816 818 820 821 823 825 827 829 830 832 834 836 838 840 841 843 844 845 846 847 848 849 850 851 852 854 854 855 856 856 857 857 858 858 858 859 859 859 860 860 860 860 860 861 861 861 862 862 862 862 862 862 861 861 861 861 861 861 861 860 860 860 860 860 860 859 859 859 859
777 778 779 781 784 786 789 791 794 796 799 802 805 808 811 813 815 817 818 819 821 823 825 827 828 830 832 834 836 838 839 841 842 843 844 845 846 847 848 849 851 852 853 854 854 855 856 856 856 857 857 858 858 858 859 859 859 859 859 859 860 860 860 860 860 860 860 860 860 860 860 860 860 859 859 859 859 859 858 858 858 858 857 857 857
777 778 780 781 783 785 786 789 790 792 795 798 801 804 807 810 813 815 817 818 820 821 823 825 826 829 831 833 834 836 837 838 840 842 843 844 845 846 847 848 849 850 851 852 853 854 854 855 855 856 856 857 857 857 858 858 858 858 858 858 859 859 859 859 859 859 859 859 858 858 858 858 858 858 858 858 857 857 857 857 856 856 856 856 855
778 779 781 781 782 783 784 786 788 790 792 794 797 800 802 805 809 811 814 817 819 821 822 824 825 827 829 831 832 834 835 836 838 840 842 843 844 845 846 847 848 848 850 851 852 852 853 854 854 854 855 855 856 856 856 857 857 857 857 858 858 858 858 857 857 857 857 857 857 857 857 857 857 856 856 856 856 856 855 855 855 855 854 854 854
780 780 782 783 783 784 784 785 786 787 789 791 793 796 798 802 805 808 811 814 817 820 821 823 824 826 827 829 830 832 833 835 837 838 840 841 843 844 845 845 846 847 848 849 850 851 852 852 853 853 853 854 854 855 855 855 856 856 856 856 856 857 857 856 856 856 856 856 855 855 855 855 855 854 854 854 854 854 854 853 853 853 853 852 852
782 782 784 784 785 786 786 787 787 787 788 790 792 794 796 799 801 804 807 809 812 816 819 821 822 823 825 826 828 830 831 833 835 836 838 839 841 842 843 844 845 846 847 848 848 849 850 851 851 851 852 852 852 853 853 853 854 854 855 855 855 855 855 855 855 855 855 854 854 854 854 853 853 853 853 852 852 852 852 851 851 851 851 851 851
784 784 785 785 786 786 787 789 789 789 789 789 791 794 796 798 800 802 804 806 808 811 814 818 819 820 822 824 826 828 830 831 833 834 836 837 839 841 842 843 844 845 845 846 847 848 848 849 849 849 850 850 850 850 851 851 852 852 853 853 853 853 853 853 853 853 853 853 852 852 852 852 851 851 851 851 850 850 850 850 850 850 849 849 849
787 786 785 785 785 786 787 788 790 791 791 790 792 794 796 799 800 801 803 805 807 809 812 814 816 817 820 822 824 826 828 830 831 832 834 835 837 838 840 842 843 843 844 845 846 846 847 847 847 848 848 848 848 849 849 849 849 850 850 851 851 851 851 851 851 851 851 851 851 851 850 850 850 849 849 849 849 849 848 848 848 848 848 848 847
788 786 785 785 785 785 786 787 788 790 791 792 793 795 797 799 800 801 802 804 806 809 811 812 814 815 818 820 823 825 826 828 829 831 832 834 835 836 838 840 841 842 843 844 844 845 845 846 846 846 847 847 847 847 847 847 847 847 848 848 848 849 849 849 849 849 849 849 849 849 848 848 848 847 847 847 846 846 846 846 846 846 846 845 845
787 786 785 785 785 785 786 787 789 790 792 793 794 796 797 798 799 801 803 805 807 808 810 812 815 817 817 819 821 823 825 827 828 830 831 833 834 835 836 838 839 840 841 842 843 844 844 845 845 845 846 845 845 845 845 845 845 845 846 846 846 847 847 847 847 847 847 846 846 846 846 846 846 845 845 845 845 845 845 844 844 844 844 843 843
785 784 784 785 785 786 787 788 790 791 792 793 793 795 796 797 798 800 802 805 808 809 810 812 816 820 819 818 820 822 823 825 826 828 829 831 832 833 834 836 837 839 840 841 842 842 843 843 844 844 845 844 844 844 844 844 843 843 844 844 844 844 845 845 844 844 844 844 844 843 843 843 843 843 843 843 843 843 843 843 842 842 841 841 841
784 784 785 786 786 787 787 787 788 789 790 791 793 794 795 796 798 800 802 805 808 810 811 813 816 819 819 819 820 821 822 824 825 826 828 829 831 832 833 833 835 837 839 840 840 841 842 842 843 843 844 843 843 843 842 842 842 841 842 842 842 842 842 842 842 842 842 841 841 841 840 840 841 840 840 840 841 841 841 840 840 840 840 839 839
786 786 786 787 787 787 788 788 788 788 789 791 793 794 796 797 798 801 803 805 807 810 813 814 815 817 819 819 819 821 822 824 825 826 827 829 830 832 833 834 834 836 837 837 838 839 841 842 842 843 844 843 843 842 842 841 840 840 840 840 840 840 840 840 840 840 840 839 839 838 838 838 838 838 838 838 838 838 838 838 838 838 838 838 837
788 788 788 789 788 788 789 789 790 790 791 793 794 795 797 798 798 800 803 805 808 810 813 815 815 815 817 817 819 821 823 824 825 825 826 828 829 831 833 835 836 837 838 838 839 840 841 841 841 841 842 842 842 841 841 840 840 839 839 839 838 838 838 838 837 837 837 837 836 836 835 836 837 838 838 838 837 836 836 836 836 836 836 837 837
792 792 791 791 791 791 791 792 792 792 792 793 794 795 796 798 798 800 803 805 807 809 811 814 816 815 816 816 818 821 823 825 826 826 826 827 828 829 832 834 834 835 837 838 838 840 840 840 839 839 840 840 840 839 839 839 838 838 837 837 837 836 836 836 835 834 834 834 833 833 833 833 834 835 836 837 836 835 835 834 834 834 835 835 836
795 796 796 796 796 796 796 796 795 795 795 795 795 795 796 797 798 799 802 805 808 810 812 814 815 815 815 817 818 821 823 824 825 826 826 828 828 829 830 832 833 834 834 835 836 837 838 838 838 838 838 838 838 838 838 838 837 837 836 836 836 835 835 834 833 832 832 831 831 831 831 830 831 831 832 832 833 833 833 832 832 832 832 833 834
798 800 800 800 800 800 800 799 798 799 799 798 798 798 797 799 800 802 804 806 809 811 813 814 815 815 816 818 820 821 823 824 824 825 826 828 829 829 829 830 832 832 833 833 833 835 836 837 837 837 836 836 837 837 837 836 836 836 835 835 835 834 833 832 831 830 830 829 829 829 829 828 828 827 827 828 828 829 829 829 830 831 831 831 832
801 802 802 801 802 802 802 802 802 802 802 802 802 801 801 804 806 806 809 811 813 814 814 815 816 817 818 819 820 822 824 825 825 825 826 827 827 828 829 829 830 831 831 832 833 834 834 835 835 836 836 836 836 836 836 836 835 834 834 833 833 833 832 830 829 828 828 827 826 826 827 827 825 824 824 824 825 825 825 826 828 829 829 830 830
805 806 805 804 804 805 806 806 806 806 805 805 805 804 806 809 810 810 812 815 816 817 816 817 818 819 820 821 822 823 825 825 826 826 826 827 827 827 828 829 830 830 831 833 834 833 833 834 834 835 835 836 837 836 836 836 835 833 832 832 831 831 830 830 829 828 827 826 825 824 824 823 822 821 820 821 822 822 822 823 825 827 828 828 829
807 808 808 808 809 809 810 810 810 810 809 808 807 807 809 811 812 813 816 817 817 818 819 819 820 821 822 823 824 825 826 827 827 828 828 828 828 828 828 828 829 830 831 832 833 833 834 835 836 836 836 837 837 837 837 836 835 833 832 832 831 831 830 829 828 827 826 825 824 823 822 821 820 819 818 819 820 821 821 822 823 825 826 827 828
808 809 810 811 812 812 812 813 813 813 813 812 810 810 811 812 814 817 819 819 818 820 822 822 822 822 823 824 825 827 828 829 829 830 830 829 829 829 829 830 830 831 832 833 833 834 835 836 836 836 837 837 837 837 837 836 835 834 833 832 831 830 830 829 828 827 825 824 823 822 821 821 820 819 819 819 820 821 821 821 822 824 825 826 826
810 811 812 813 814 814 814 815 816 816 816 816 815 814 815 816 818 821 822 821 822 823 824 824 824 824 825 826 827 829 830 830 831 831 831 831 831 831 831 832 832 833 833 834 835 836 836 836 836 836 836 837 837 837 837 837 836 835 834 833 832 831 830 828 827 826 825 823 822 821 820 820 820 819 819 819 819 819 820 820 821 823 824 824 825
813 814 814 815 815 816 817 818 818 819 819 820 819 819 819 820 822 824 825 825 825 826 827 827 827 827 828 828 829 830 831 831 832 832 832 831 832 832 833 834 834 835 835 835 836 837 837 837 837 837 837 837 837 837 837 837 836 836 835 834 833 831 830 828 827 825 824 823 822 821 820 819 819 818 818 818 817 817 817 819 821 822 823 824 824
815 816 816 817 818 819 819 820 820 821 822 822 823 823 824 825 826 827 827 828 828 829 829 829 829 829 829 830 831 831 832 833 833 833 832 832 833 834 835 835 836 836 837 837 837 838 838 838 838 838 838 838 838 837 837 837 836 835 835 834 833 831 830 828 827 825 824 823 822 821 820 819 818 817 817 817 817 816 817 819 821 822 824 824 824
817 818 819 820 820 821 822 822 823 823 824 824 825 825 826 827 828 829 830 830 830 831 831 831 831 831 832 832 833 833 834 834 834 834 834 834 835 836 836 837 837 838 838 838 839 839 839 839 839 839 839 839 838 838 837 837 836 835 834 832 831 830 829 828 826 825 824 823 822 821 820 820 819 818 817 817 817 817 818 820 821 823 824 824 824
819 820 821 821 822 824 824 825 826 826 827 827 827 828 829 829 830 831 831 831 832 832 833 833 833 834 834 834 834 835 835 835 835 836 836 837 837 837 838 838 839 839 839 839 839 840 840 840 840 840 839 839 838 838 837 836 835 834 832 831 830 829 828 827 826 825 824 824 823 822 822 822 821 819 818 818 819 819 820 821 822 823 824 824 825
821 823 823 823 824 825 826 827 828 829 829 830 830 831 831 831 831 832 832 832 833 833 834 835 835 835 836 836 836 836 837 837 837 838 838 839 839 839 839 839 840 840 840 840 840 840 840 840 840 840 839 839 838 838 837 836 834 833 831 830 829 828 827 826 825 825 824 824 824 823 823 823 822 821 820 821 822 822 822 823 824 825 825 825 826
823 825 825 826 827 827 828 829 830 830 831 832 833 834 834 834 835 835 834 834 835 835 836 836 837 838 838 839 839 839 839 839 840 840 840 840 841 841 841 841 841 840 840 840 840 840 840 840 840 840 839 839 838 837 836 835 834 832 831 830 829 828 827 826 825 825 825 825 825 824 824 824 824 823 822 823 824 825 825 826 826 827 827 828 827
825 826 826 827 828 829 829 830 831 832 833 834 835 836 836 837 837 838 838 838 838 838 839 839 840 840 841 841 841 841 841 842 842 842 842 842 842 842 842 842 841 841 841 840 840 840 840 840 840 839 839 838 838 837 836 835 834 832 831 830 829 828 827 827 826 825 825 825 825 826 826 827 826 826 826 826 826 827 828 828 828 829 829 830 830